OneWeb SL0409

operational
NORAD ID: 50488 Int'l Des: 2021-132 Owner: ONEWEBN Country: UK Constellation: oneweb
LEOCIRCULARPOLARONEWEB_TYPE

Über OneWeb SL0409

Beschreibung wird geladen...

Live-Position

3D-Globus wird geladen...

Nächste Überflüge

Höhenverlauf

Altitude vs Time

uPlot chart will show altitude changes over time

Zweizeiliger Elementsatz

1 50488U 21132V 25343.50342771 .00000463 00000-0 12706-2 0 9991
2 50488 87.8876 58.8134 0001378 112.8903 247.2371 13.11421246190723
Epoch: 9. Dez. 2025 • Age: 8 hours

Aktueller Status

Höhe 1227.4 km
Geschwindigkeit 7.25 km/s
Subsatellitenpunkt 62.63°N, 144.18°W
Startdatum 27. Dez. 2021
Alter 3.9 years
Typ internet

Technische Details

Klassifizierung Payload
Masse 148.00 kg
Trockenmasse 140.00 kg
Gesamtmasse 148.00 kg
Länge 1.30 m
Durchmesser 1.00 m
Spannweite 5.00 m
Form Trapezoid+2 pan
Hersteller ONEWUS
Bus-Typ ARROW
Phasenstatus In Orbit
Besitzer/Staat ONEWEBN/UK

Große Konstellationen

Loading constellations...